Vision — WDF6306 — position and weather

sailwx.info

Track history (hours):
 
Tides and Currents Weather Stations Pressure Air Temp Water Temp Dewpoint Dewpoint Depression Visibility Wind Speed Wind Dir Waves Ship Positions

Vision

Owner: INTREPID SHIP MANAGEMENT, JACKSONVILLE, FL. More information available from US FCC via Universal Licensing System and Coast Guard Vessel Documentation Center.

Last reported at 2014-Oct-21 04:31 UTC. Time now 2014-Oct-21 18:31 UTC.
Position N 46°09' W 124°20'.

Length 199 m; draft 8.5 m.

Type: Towing. MMSI: 366904000.

Date/timePositionNaut miles runAvg speedWind from/ knotsBaromVisibWave heightAir tempDewpointWater temp
2014-Oct-21 04:31N 46°09' W 124°20'9 9.3
2014-Oct-21 03:33N 46°12' W 124°08'7 6.5
2014-Oct-21 02:33N 46°14' W 123°59'910.1
2014-Oct-21 01:39N 46°13' W 123°46'113.2
2014-Oct-21 01:33N 46°14' W 123°44'1312.3
2014-Oct-21 00:32N 46°14' W 123°26'11 0.5
2014-Oct-20 03:28N 46°11' W 123°11'0 0.0
2014-Oct-20 02:28N 46°11' W 123°11'0 0.0
2014-Oct-20 01:28N 46°11' W 123°11'0 0.0
2014-Oct-20 00:28N 46°11' W 123°11'0 0.0
2014-Oct-19 23:28N 46°11' W 123°11'0 0.0
2014-Oct-19 22:28N 46°11' W 123°11'0 0.0
2014-Oct-19 21:28N 46°11' W 123°11'0 0.0
2014-Oct-19 20:28N 46°11' W 123°11'0 0.0
2014-Oct-19 19:28N 46°11' W 123°11'0 0.0
2014-Oct-19 18:28N 46°11' W 123°11'0 0.0
2014-Oct-19 17:28N 46°11' W 123°11'0 0.0
2014-Oct-19 16:22N 46°11' W 123°11'0 0.0
2014-Oct-19 15:28N 46°11' W 123°11'0 0.0
2014-Oct-19 14:28N 46°11' W 123°11'0 0.0
2014-Oct-19 13:28N 46°11' W 123°11'0 0.0
2014-Oct-19 12:28N 46°11' W 123°11'0 0.0
2014-Oct-19 11:28N 46°11' W 123°11'0 0.0
2014-Oct-19 10:28N 46°11' W 123°11'0 0.0
2014-Oct-19 09:28N 46°11' W 123°11'0 0.0
2014-Oct-19 08:28N 46°11' W 123°11'  
2014-Oct-14 21:04N 38°24' W 124°26'712.5
2014-Oct-14 20:29N 38°20' W 124°18'1212.7
2014-Oct-14 19:33N 38°14' W 124°06'1212.5
2014-Oct-14 18:33N 38°06' W 123°53'1312.4
2014-Oct-14 17:33N 37°58' W 123°41'1110.6
2014-Oct-14 16:33N 37°50' W 123°32'1111.0
2014-Oct-14 15:33N 37°45' W 123°19'1212.1
2014-Oct-14 14:33N 37°37' W 123°08'10 9.6
2014-Oct-14 13:33N 37°38' W 122°56'1211.7
2014-Oct-14 12:33N 37°45' W 122°44'1010.3
2014-Oct-14 11:33N 37°48' W 122°32'8 8.5
2014-Oct-14 10:33N 37°47' W 122°21'1 0.7
2014-Oct-14 09:34N 37°46' W 122°21'0 0.0
2014-Oct-14 08:34N 37°46' W 122°21'0 0.0
2014-Oct-14 07:34N 37°46' W 122°21'0 0.1
2014-Oct-14 06:33N 37°46' W 122°21'0 0.1
2014-Oct-14 05:33N 37°46' W 122°21'0 0.0
2014-Oct-14 04:33N 37°46' W 122°21'0 0.0
2014-Oct-14 03:33N 37°46' W 122°21'0 0.0
2014-Oct-14 02:33N 37°46' W 122°21'0 0.1
2014-Oct-14 01:30N 37°46' W 122°21'0 0.1
2014-Oct-14 00:33N 37°46' W 122°21'0 0.2
2014-Oct-13 23:33N 37°46' W 122°21'0 0.1
2014-Oct-13 22:33N 37°46' W 122°21'0 0.0
2014-Oct-13 21:33N 37°46' W 122°21'4 3.8
2014-Oct-13 20:33N 37°49' W 122°23'1110.9
2014-Oct-13 19:33N 37°60' W 122°25'1311.5
2014-Oct-13 18:28N 38°02' W 122°09'1 1.1
2014-Oct-13 17:29N 38°02' W 122°08'0 0.0
2014-Oct-13 16:29N 38°02' W 122°08'0 0.0
2014-Oct-13 15:29N 38°02' W 122°08'0 0.0
2014-Oct-13 14:29N 38°02' W 122°08'0 0.0
2014-Oct-13 13:29N 38°02' W 122°08'0 0.0
2014-Oct-13 12:29N 38°02' W 122°08'0 0.0
2014-Oct-13 11:29N 38°02' W 122°08'0 0.0
2014-Oct-13 10:29N 38°02' W 122°08'0 0.0
2014-Oct-13 09:23N 38°02' W 122°08'0 0.0
2014-Oct-13 08:29N 38°02' W 122°08'0 0.0
2014-Oct-13 07:29N 38°02' W 122°08'0 0.0
2014-Oct-13 06:29N 38°02' W 122°08'0 0.0
2014-Oct-13 05:23N 38°02' W 122°08'0 0.0
2014-Oct-13 04:29N 38°02' W 122°08'0 0.0
2014-Oct-13 03:29N 38°02' W 122°08'0 0.0
2014-Oct-13 02:29N 38°02' W 122°08'0 0.0
2014-Oct-13 01:29N 38°02' W 122°08'0 0.0
2014-Oct-13 00:05N 38°02' W 122°08'0 0.0
2014-Oct-12 22:17N 38°02' W 122°08'0 0.0
2014-Oct-12 18:33N 38°02' W 122°08'6 6.3
2014-Oct-12 17:33N 38°04' W 122°16'9 8.8
2014-Oct-12 16:34N 37°59' W 122°25'8 7.8
2014-Oct-12 15:33N 37°51' W 122°25'9 8.9
2014-Oct-12 14:33N 37°47' W 122°35'1110.6
2014-Oct-12 13:33N 37°41' W 122°46'1211.6
2014-Oct-12 12:33N 37°35' W 122°58'1110.7
2014-Oct-12 11:33N 37°32' W 123°11'1110.9
2014-Oct-12 10:33N 37°32' W 123°25'9 9.5
2014-Oct-12 09:33N 37°37' W 123°36'9 9.4
2014-Oct-12 08:33N 37°43' W 123°44'10 9.5
2014-Oct-12 07:33N 37°49' W 123°53'9 9.2
2014-Oct-12 06:33N 37°56' W 124°02'10 9.5
2014-Oct-12 05:28N 38°03' W 124°12'8 9.2
2014-Oct-12 04:33N 38°08' W 124°19'9 8.9
2014-Oct-12 03:33N 38°15' W 124°27'9 9.0
2014-Oct-12 02:33N 38°21' W 124°35'12 9.3
2014-Oct-12 01:12N 38°32' W 124°43'  
Track history (hours):
 
Tides and Currents Weather Stations Pressure Air Temp Water Temp Dewpoint Dewpoint Depression Visibility Wind Speed Wind Dir Waves Ship Positions

Vision

Owner: INTREPID SHIP MANAGEMENT, JACKSONVILLE, FL. More information available from US FCC via Universal Licensing System and Coast Guard Vessel Documentation Center.

Last reported at 2014-Oct-21 04:31 UTC. Time now 2014-Oct-21 18:31 UTC.
Position N 46°09' W 124°20'.

Length 199 m; draft 8.5 m.

Type: Towing. MMSI: 366904000.

Date/timePositionNaut miles runAvg speedWind from/ knotsBaromVisibWave heightAir tempDewpointWater temp
2014-Oct-21 04:31N 46°09' W 124°20'9 9.3
2014-Oct-21 03:33N 46°12' W 124°08'7 6.5
2014-Oct-21 02:33N 46°14' W 123°59'910.1
2014-Oct-21 01:39N 46°13' W 123°46'113.2
2014-Oct-21 01:33N 46°14' W 123°44'1312.3
2014-Oct-21 00:32N 46°14' W 123°26'11 0.5
2014-Oct-20 03:28N 46°11' W 123°11'0 0.0
2014-Oct-20 02:28N 46°11' W 123°11'0 0.0
2014-Oct-20 01:28N 46°11' W 123°11'0 0.0
2014-Oct-20 00:28N 46°11' W 123°11'0 0.0
2014-Oct-19 23:28N 46°11' W 123°11'0 0.0
2014-Oct-19 22:28N 46°11' W 123°11'0 0.0
2014-Oct-19 21:28N 46°11' W 123°11'0 0.0
2014-Oct-19 20:28N 46°11' W 123°11'0 0.0
2014-Oct-19 19:28N 46°11' W 123°11'0 0.0
2014-Oct-19 18:28N 46°11' W 123°11'0 0.0
2014-Oct-19 17:28N 46°11' W 123°11'0 0.0
2014-Oct-19 16:22N 46°11' W 123°11'0 0.0
2014-Oct-19 15:28N 46°11' W 123°11'0 0.0
2014-Oct-19 14:28N 46°11' W 123°11'0 0.0
2014-Oct-19 13:28N 46°11' W 123°11'0 0.0
2014-Oct-19 12:28N 46°11' W 123°11'0 0.0
2014-Oct-19 11:28N 46°11' W 123°11'0 0.0
2014-Oct-19 10:28N 46°11' W 123°11'0 0.0
2014-Oct-19 09:28N 46°11' W 123°11'0 0.0
2014-Oct-19 08:28N 46°11' W 123°11'  
2014-Oct-14 21:04N 38°24' W 124°26'712.5
2014-Oct-14 20:29N 38°20' W 124°18'1212.7
2014-Oct-14 19:33N 38°14' W 124°06'1212.5
2014-Oct-14 18:33N 38°06' W 123°53'1312.4
2014-Oct-14 17:33N 37°58' W 123°41'1110.6
2014-Oct-14 16:33N 37°50' W 123°32'1111.0
2014-Oct-14 15:33N 37°45' W 123°19'1212.1
2014-Oct-14 14:33N 37°37' W 123°08'10 9.6
2014-Oct-14 13:33N 37°38' W 122°56'1211.7
2014-Oct-14 12:33N 37°45' W 122°44'1010.3
2014-Oct-14 11:33N 37°48' W 122°32'8 8.5
2014-Oct-14 10:33N 37°47' W 122°21'1 0.7
2014-Oct-14 09:34N 37°46' W 122°21'0 0.0
2014-Oct-14 08:34N 37°46' W 122°21'0 0.0
2014-Oct-14 07:34N 37°46' W 122°21'0 0.1
2014-Oct-14 06:33N 37°46' W 122°21'0 0.1
2014-Oct-14 05:33N 37°46' W 122°21'0 0.0
2014-Oct-14 04:33N 37°46' W 122°21'0 0.0
2014-Oct-14 03:33N 37°46' W 122°21'0 0.0
2014-Oct-14 02:33N 37°46' W 122°21'0 0.1
2014-Oct-14 01:30N 37°46' W 122°21'0 0.1
2014-Oct-14 00:33N 37°46' W 122°21'0 0.2
2014-Oct-13 23:33N 37°46' W 122°21'0 0.1
2014-Oct-13 22:33N 37°46' W 122°21'0 0.0
2014-Oct-13 21:33N 37°46' W 122°21'4 3.8
2014-Oct-13 20:33N 37°49' W 122°23'1110.9
2014-Oct-13 19:33N 37°60' W 122°25'1311.5
2014-Oct-13 18:28N 38°02' W 122°09'1 1.1
2014-Oct-13 17:29N 38°02' W 122°08'0 0.0
2014-Oct-13 16:29N 38°02' W 122°08'0 0.0
2014-Oct-13 15:29N 38°02' W 122°08'0 0.0
2014-Oct-13 14:29N 38°02' W 122°08'0 0.0
2014-Oct-13 13:29N 38°02' W 122°08'0 0.0
2014-Oct-13 12:29N 38°02' W 122°08'0 0.0
2014-Oct-13 11:29N 38°02' W 122°08'0 0.0
2014-Oct-13 10:29N 38°02' W 122°08'0 0.0
2014-Oct-13 09:23N 38°02' W 122°08'0 0.0
2014-Oct-13 08:29N 38°02' W 122°08'0 0.0
2014-Oct-13 07:29N 38°02' W 122°08'0 0.0
2014-Oct-13 06:29N 38°02' W 122°08'0 0.0
2014-Oct-13 05:23N 38°02' W 122°08'0 0.0
2014-Oct-13 04:29N 38°02' W 122°08'0 0.0
2014-Oct-13 03:29N 38°02' W 122°08'0 0.0
2014-Oct-13 02:29N 38°02' W 122°08'0 0.0
2014-Oct-13 01:29N 38°02' W 122°08'0 0.0
2014-Oct-13 00:05N 38°02' W 122°08'0 0.0
2014-Oct-12 22:17N 38°02' W 122°08'0 0.0
2014-Oct-12 18:33N 38°02' W 122°08'6 6.3
2014-Oct-12 17:33N 38°04' W 122°16'9 8.8
2014-Oct-12 16:34N 37°59' W 122°25'8 7.8
2014-Oct-12 15:33N 37°51' W 122°25'9 8.9
2014-Oct-12 14:33N 37°47' W 122°35'1110.6
2014-Oct-12 13:33N 37°41' W 122°46'1211.6
2014-Oct-12 12:33N 37°35' W 122°58'1110.7
2014-Oct-12 11:33N 37°32' W 123°11'1110.9
2014-Oct-12 10:33N 37°32' W 123°25'9 9.5
2014-Oct-12 09:33N 37°37' W 123°36'9 9.4
2014-Oct-12 08:33N 37°43' W 123°44'10 9.5
2014-Oct-12 07:33N 37°49' W 123°53'9 9.2
2014-Oct-12 06:33N 37°56' W 124°02'10 9.5
2014-Oct-12 05:28N 38°03' W 124°12'8 9.2
2014-Oct-12 04:33N 38°08' W 124°19'9 8.9
2014-Oct-12 03:33N 38°15' W 124°27'9 9.0
2014-Oct-12 02:33N 38°21' W 124°35'12 9.3
2014-Oct-12 01:12N 38°32' W 124°43'  

Dump ship's entire track history